N6AA KAPF-MMUN

Flight info

Callsign N6AA
Flight time 1h 12m
Altitude 51000
Route MARCI KARTR LULLS Y196 CANOA UB879 NOSAT
Aircraft GLF5/M-VGDW/C

Departure

Time 2026-04-26 21:14
Airport Naples Municipal Airport (KAPF)

Arrival

Time 2026-04-26 22:27
Airport Cancún International Airport (MMUN)
Time Latitude Longitude Altitude Speed Heading
2026-04-26 21:04 26.15255 -81.77125 9 ft 0 kts 90°
2026-04-26 21:10 26.15255 -81.77123 9 ft 2 kts 87°
2026-04-26 21:10 26.15313 -81.77085 10 ft 19 kts
2026-04-26 21:11 26.15447 -81.77122 9 ft 17 kts 320°
2026-04-26 21:11 26.15539 -81.77087 10 ft 15 kts 45°
2026-04-26 21:11 26.15612 -81.77008 11 ft 13 kts 43°
2026-04-26 21:11 26.15680 -81.76935 11 ft 15 kts 44°
2026-04-26 21:12 26.15761 -81.76847 11 ft 16 kts 44°
2026-04-26 21:12 26.15842 -81.76777 11 ft 7 kts 359°
2026-04-26 21:12 26.15855 -81.76783 11 ft 0 kts 327°
2026-04-26 21:13 26.15858 -81.76786 11 ft 4 kts 324°
2026-04-26 21:13 26.15900 -81.76832 11 ft 7 kts 308°
2026-04-26 21:13 26.15894 -81.76872 11 ft 0 kts 225°
2026-04-26 21:14 26.15864 -81.76906 11 ft 37 kts 225°
2026-04-26 21:14 26.15396 -81.77413 10 ft 143 kts 225°
2026-04-26 21:14 26.14585 -81.78268 691 ft 177 kts 228°
2026-04-26 21:14 26.14010 -81.79572 1295 ft 203 kts 256°
2026-04-26 21:15 26.13857 -81.81146 1304 ft 202 kts 268°
2026-04-26 21:15 26.13781 -81.82785 1410 ft 241 kts 267°
2026-04-26 21:15 26.13657 -81.84604 1691 ft 222 kts 265°
2026-04-26 21:15 26.13500 -81.86271 1580 ft 216 kts 262°
2026-04-26 21:16 26.12777 -81.87892 2322 ft 248 kts 230°
2026-04-26 21:16 26.11430 -81.88995 3550 ft 261 kts 210°
2026-04-26 21:16 26.09568 -81.89616 4258 ft 295 kts 188°
2026-04-26 21:16 26.07583 -81.89365 5846 ft 291 kts 167°
2026-04-26 21:17 26.05613 -81.88594 6759 ft 315 kts 157°
2026-04-26 21:17 26.03659 -81.87536 8330 ft 312 kts 153°
2026-04-26 21:17 26.01788 -81.86427 9753 ft 316 kts 153°
2026-04-26 21:17 25.99857 -81.85226 10720 ft 338 kts 152°
2026-04-26 21:18 25.97619 -81.83818 10923 ft 383 kts 151°
2026-04-26 21:18 25.95336 -81.82368 12336 ft 384 kts 151°
2026-04-26 21:18 25.93000 -81.80885 13477 ft 394 kts 151°
2026-04-26 21:18 25.90618 -81.79369 14703 ft 401 kts 151°
2026-04-26 21:19 25.88142 -81.77914 15977 ft 404 kts 158°
2026-04-26 21:19 25.85689 -81.76427 17029 ft 414 kts 144°
2026-04-26 21:19 25.83301 -81.74555 18251 ft 420 kts 147°
2026-04-26 21:19 25.80847 -81.72776 19365 ft 429 kts 148°
2026-04-26 21:20 25.78341 -81.71018 20587 ft 435 kts 149°
2026-04-26 21:20 25.75739 -81.69216 21802 ft 441 kts 149°
2026-04-26 21:20 25.73122 -81.67413 22905 ft 449 kts 149°
2026-04-26 21:20 25.70418 -81.65556 23949 ft 458 kts 149°
2026-04-26 21:21 25.67704 -81.63693 24970 ft 467 kts 150°
2026-04-26 21:21 25.64911 -81.61777 26030 ft 473 kts 150°
2026-04-26 21:21 25.62075 -81.59833 26881 ft 483 kts 150°
2026-04-26 21:21 25.59120 -81.58070 27760 ft 486 kts 161°
2026-04-26 21:22 25.55811 -81.57362 28510 ft 485 kts 182°
2026-04-26 21:22 25.52478 -81.57832 29469 ft 480 kts 196°
2026-04-26 21:22 25.49341 -81.59112 30202 ft 476 kts 214°
2026-04-26 21:23 25.44128 -81.63549 32164 ft 470 kts 226°
2026-04-26 21:23 25.41710 -81.65894 33305 ft 465 kts 227°
2026-04-26 21:23 25.39313 -81.68265 34392 ft 462 kts 227°
2026-04-26 21:23 25.36910 -81.70656 35282 ft 463 kts 227°
2026-04-26 21:24 25.34546 -81.73010 36363 ft 459 kts 227°
2026-04-26 21:24 25.32178 -81.75367 37187 ft 460 kts 227°
2026-04-26 21:24 25.29775 -81.77758 37967 ft 461 kts 228°
2026-04-26 21:24 25.27400 -81.80120 38732 ft 461 kts 228°
2026-04-26 21:25 25.25003 -81.82502 39438 ft 463 kts 228°
2026-04-26 21:25 25.22639 -81.84849 40450 ft 457 kts 228°
2026-04-26 21:25 25.20306 -81.87165 41333 ft 453 kts 228°
2026-04-26 21:25 25.17969 -81.89484 42175 ft 450 kts 229°
2026-04-26 21:26 25.15661 -81.91774 42965 ft 446 kts 229°
2026-04-26 21:26 25.13367 -81.94048 43688 ft 443 kts 229°
2026-04-26 21:26 25.11081 -81.96313 44372 ft 441 kts 229°
2026-04-26 21:26 25.08853 -81.98515 44824 ft 426 kts 229°
2026-04-26 21:27 25.06656 -82.00690 45273 ft 417 kts 230°
2026-04-26 21:27 25.04506 -82.02821 45729 ft 419 kts 230°
2026-04-26 21:27 25.02361 -82.04945 46205 ft 419 kts 230°
2026-04-26 21:27 25.00169 -82.07112 46696 ft 418 kts 230°
2026-04-26 21:28 24.98020 -82.09234 47148 ft 417 kts 229°
2026-04-26 21:28 24.95859 -82.11368 47630 ft 416 kts 229°
2026-04-26 21:28 24.93729 -82.13470 48139 ft 414 kts 229°
2026-04-26 21:28 24.91566 -82.15604 48630 ft 411 kts 229°
2026-04-26 21:29 24.89447 -82.17693 49095 ft 408 kts 229°
2026-04-26 21:29 24.87348 -82.19761 49513 ft 405 kts 229°
2026-04-26 21:29 24.85251 -82.21826 49978 ft 401 kts 229°
2026-04-26 21:29 24.83193 -82.23852 50411 ft 396 kts 229°
2026-04-26 21:30 24.81130 -82.25884 50755 ft 395 kts 229°
2026-04-26 21:30 24.79083 -82.27898 50816 ft 398 kts 229°
2026-04-26 21:30 24.74885 -82.32025 50823 ft 407 kts 229°
2026-04-26 21:31 24.70597 -82.36237 50905 ft 415 kts 228°
2026-04-26 21:31 24.66188 -82.40562 50932 ft 426 kts 228°
2026-04-26 21:32 24.61698 -82.44963 50927 ft 438 kts 228°
2026-04-26 21:32 24.57110 -82.49455 50923 ft 447 kts 228°
2026-04-26 21:33 24.52415 -82.54045 50906 ft 455 kts 228°
2026-04-26 21:33 24.47644 -82.58707 50903 ft 464 kts 227°
2026-04-26 21:34 24.42799 -82.63436 50912 ft 472 kts 227°
2026-04-26 21:34 24.37844 -82.68266 50924 ft 480 kts 227°
2026-04-26 21:35 24.32846 -82.73133 50931 ft 484 kts 227°
2026-04-26 21:35 24.27761 -82.78080 50931 ft 488 kts 227°
2026-04-26 21:36 24.22677 -82.83019 50935 ft 491 kts 227°
2026-04-26 21:36 24.17552 -82.87993 50931 ft 486 kts 227°
2026-04-26 21:37 24.12543 -82.92848 50931 ft 482 kts 227°
2026-04-26 21:37 24.07480 -82.97754 50934 ft 484 kts 227°
2026-04-26 21:38 24.02384 -83.02684 50933 ft 486 kts 227°
2026-04-26 21:38 23.97905 -83.08055 50947 ft 477 kts 239°
2026-04-26 21:39 23.93961 -83.13878 50924 ft 482 kts 238°
2026-04-26 21:39 23.89927 -83.19810 50923 ft 483 kts 238°
2026-04-26 21:40 23.85972 -83.25616 50905 ft 476 kts 238°
2026-04-26 21:40 23.81992 -83.31457 50915 ft 474 kts 238°
2026-04-26 21:41 23.78050 -83.37233 50915 ft 477 kts 239°
2026-04-26 21:41 23.74047 -83.43092 50923 ft 479 kts 239°
2026-04-26 21:42 23.70061 -83.48918 50911 ft 478 kts 239°
2026-04-26 21:42 23.66078 -83.54735 50916 ft 478 kts 238°
2026-04-26 21:43 23.62111 -83.60521 50913 ft 479 kts 239°
2026-04-26 21:43 23.58136 -83.66307 50930 ft 478 kts 238°
2026-04-26 21:44 23.54136 -83.72125 50925 ft 478 kts 238°
2026-04-26 21:44 23.50163 -83.77896 50923 ft 479 kts 238°
2026-04-26 21:45 23.46169 -83.83691 50904 ft 479 kts 238°
2026-04-26 21:45 23.42165 -83.89495 50921 ft 480 kts 238°
2026-04-26 21:46 23.38173 -83.95275 50927 ft 480 kts 238°
2026-04-26 21:46 23.34136 -84.01112 50924 ft 481 kts 238°
2026-04-26 21:47 23.30102 -84.06938 50930 ft 483 kts 238°
2026-04-26 21:47 23.26077 -84.12746 50922 ft 481 kts 238°
2026-04-26 21:48 23.22065 -84.18528 50921 ft 480 kts 238°
2026-04-26 21:48 23.18033 -84.24332 50936 ft 482 kts 238°
2026-04-26 21:49 23.13991 -84.30145 50946 ft 482 kts 238°
2026-04-26 21:49 23.09970 -84.35920 50936 ft 481 kts 238°
2026-04-26 21:50 23.07966 -84.38792 50920 ft 468 kts 238°
2026-04-26 21:50 23.05999 -84.41615 50924 ft 467 kts 238°
2026-04-26 21:50 23.02051 -84.47276 50929 ft 475 kts 238°
2026-04-26 21:51 22.97994 -84.53084 50940 ft 483 kts 238°
2026-04-26 21:51 22.93911 -84.58922 50931 ft 490 kts 238°
2026-04-26 21:52 22.89830 -84.64747 50913 ft 477 kts 238°
2026-04-26 21:52 22.87865 -84.67548 50909 ft 459 kts 238°
2026-04-26 21:52 22.85961 -84.70263 50901 ft 441 kts 238°
2026-04-26 21:53 22.84098 -84.72922 49680 ft 447 kts 238°
2026-04-26 21:53 22.82222 -84.75603 48329 ft 462 kts 238°
2026-04-26 21:53 22.80239 -84.78431 46948 ft 479 kts 238°
2026-04-26 21:53 22.78216 -84.81310 45524 ft 487 kts 238°
2026-04-26 21:54 22.76180 -84.84201 43927 ft 483 kts 238°
2026-04-26 21:54 22.74188 -84.87023 42286 ft 451 kts 238°
2026-04-26 21:54 22.72342 -84.89644 40925 ft 431 kts 239°
2026-04-26 21:54 22.70515 -84.92252 39838 ft 446 kts 239°
2026-04-26 21:55 22.68629 -84.94933 38573 ft 452 kts 238°
2026-04-26 21:55 22.66706 -84.97659 37389 ft 455 kts 238°
2026-04-26 21:55 22.64842 -85.00299 36063 ft 434 kts 238°
2026-04-26 21:55 22.63002 -85.02910 35028 ft 441 kts 238°
2026-04-26 21:56 22.61159 -85.05522 33812 ft 443 kts 238°
2026-04-26 21:56 22.59327 -85.08137 32599 ft 421 kts 238°
2026-04-26 21:56 22.57606 -85.10616 31778 ft 422 kts 238°
2026-04-26 21:56 22.55770 -85.13272 30766 ft 461 kts 238°
2026-04-26 21:57 22.53816 -85.16074 30035 ft 473 kts 238°
2026-04-26 21:57 22.51850 -85.18891 29246 ft 476 kts 238°
2026-04-26 21:57 22.49860 -85.21739 28655 ft 463 kts 238°
2026-04-26 21:57 22.47960 -85.24464 28135 ft 456 kts 238°
2026-04-26 21:58 22.46059 -85.27188 27632 ft 452 kts 238°
2026-04-26 21:58 22.44139 -85.29942 27123 ft 451 kts 238°
2026-04-26 21:58 22.42234 -85.32668 26621 ft 449 kts 238°
2026-04-26 21:58 22.40365 -85.35344 26128 ft 447 kts 238°
2026-04-26 21:59 22.38501 -85.38009 25635 ft 445 kts 238°
2026-04-26 21:59 22.36641 -85.40669 25148 ft 443 kts 238°
2026-04-26 21:59 22.34794 -85.43307 24659 ft 441 kts 238°
2026-04-26 21:59 22.32934 -85.45965 24168 ft 439 kts 238°
2026-04-26 22:00 22.31106 -85.48573 23691 ft 438 kts 238°
2026-04-26 22:00 22.29263 -85.51204 23204 ft 436 kts 238°
2026-04-26 22:00 22.27460 -85.53775 22732 ft 434 kts 238°
2026-04-26 22:00 22.25640 -85.56370 22260 ft 432 kts 238°
2026-04-26 22:01 22.23838 -85.58938 21921 ft 426 kts 238°
2026-04-26 22:01 22.22061 -85.61480 21905 ft 425 kts 238°
2026-04-26 22:01 22.20260 -85.64053 21902 ft 427 kts 238°
2026-04-26 22:01 22.18464 -85.66621 21908 ft 430 kts 237°
2026-04-26 22:02 22.16672 -85.69179 21907 ft 430 kts 237°
2026-04-26 22:02 22.14878 -85.71738 21904 ft 430 kts 237°
2026-04-26 22:02 22.13045 -85.74353 21907 ft 430 kts 237°
2026-04-26 22:02 22.11250 -85.76913 21906 ft 429 kts 237°
2026-04-26 22:03 22.09440 -85.79492 21910 ft 429 kts 237°
2026-04-26 22:03 22.07661 -85.82025 21907 ft 430 kts 237°
2026-04-26 22:03 22.05852 -85.84601 21908 ft 430 kts 237°
2026-04-26 22:03 22.04043 -85.87176 21909 ft 430 kts 237°
2026-04-26 22:04 22.02228 -85.89758 21906 ft 431 kts 237°
2026-04-26 22:04 22.00414 -85.92337 21908 ft 431 kts 237°
2026-04-26 22:04 21.98625 -85.94879 21908 ft 431 kts 237°
2026-04-26 22:04 21.96814 -85.97452 21908 ft 431 kts 237°
2026-04-26 22:05 21.95124 -86.00125 21907 ft 428 kts 242°
2026-04-26 22:05 21.93546 -86.02831 21675 ft 431 kts 242°
2026-04-26 22:05 21.91933 -86.05571 21250 ft 427 kts 242°
2026-04-26 22:05 21.90357 -86.08235 20795 ft 422 kts 242°
2026-04-26 22:06 21.88773 -86.10909 20320 ft 418 kts 242°
2026-04-26 22:06 21.87223 -86.13525 19864 ft 414 kts 241°
2026-04-26 22:06 21.85671 -86.16142 19401 ft 411 kts 241°
2026-04-26 22:06 21.84143 -86.18718 18947 ft 409 kts 241°
2026-04-26 22:07 21.82607 -86.21306 18494 ft 406 kts 241°
2026-04-26 22:07 21.81104 -86.23836 18045 ft 403 kts 241°
2026-04-26 22:07 21.79604 -86.26360 17616 ft 400 kts 240°
2026-04-26 22:07 21.78112 -86.28870 17230 ft 397 kts 240°
2026-04-26 22:08 21.76623 -86.31373 16803 ft 396 kts 240°
2026-04-26 22:08 21.75144 -86.33856 16372 ft 393 kts 240°
2026-04-26 22:08 21.73683 -86.36311 15943 ft 390 kts 240°
2026-04-26 22:08 21.72229 -86.38753 15513 ft 388 kts 240°
2026-04-26 22:09 21.70769 -86.41202 15084 ft 385 kts 240°
2026-04-26 22:09 21.69338 -86.43603 14657 ft 382 kts 240°
2026-04-26 22:09 21.67897 -86.46020 14234 ft 385 kts 240°
2026-04-26 22:09 21.66404 -86.48528 13817 ft 408 kts 240°
2026-04-26 22:10 21.64878 -86.51082 13353 ft 408 kts 240°
2026-04-26 22:10 21.63354 -86.53632 12893 ft 403 kts 240°
2026-04-26 22:10 21.61833 -86.56177 12440 ft 399 kts 240°
2026-04-26 22:10 21.60336 -86.58682 12001 ft 391 kts 240°
2026-04-26 22:11 21.58898 -86.61083 11576 ft 374 kts 240°
2026-04-26 22:11 21.57530 -86.63369 11163 ft 359 kts 240°
2026-04-26 22:11 21.56200 -86.65591 10773 ft 346 kts 239°
2026-04-26 22:11 21.54922 -86.67725 10401 ft 334 kts 239°
2026-04-26 22:12 21.53682 -86.69796 10032 ft 323 kts 239°
2026-04-26 22:12 21.52479 -86.71805 9683 ft 314 kts 239°
2026-04-26 22:12 21.51314 -86.73748 9342 ft 306 kts 239°
2026-04-26 22:12 21.50176 -86.75645 9013 ft 298 kts 239°
2026-04-26 22:13 21.49075 -86.77482 8693 ft 291 kts 239°
2026-04-26 22:13 21.47987 -86.79295 8371 ft 288 kts 239°
2026-04-26 22:13 21.46905 -86.81098 8057 ft 288 kts 239°
2026-04-26 22:13 21.45814 -86.82916 7741 ft 288 kts 239°
2026-04-26 22:14 21.44724 -86.84731 7416 ft 288 kts 239°
2026-04-26 22:14 21.43651 -86.86517 7106 ft 287 kts 238°
2026-04-26 22:14 21.42567 -86.88320 6786 ft 285 kts 238°
2026-04-26 22:14 21.41502 -86.90093 6466 ft 284 kts 238°
2026-04-26 22:15 21.40424 -86.91884 6150 ft 283 kts 238°
2026-04-26 22:15 21.39373 -86.93631 5843 ft 281 kts 238°
2026-04-26 22:15 21.38302 -86.95411 5535 ft 280 kts 238°
2026-04-26 22:15 21.37256 -86.97150 5223 ft 280 kts 237°
2026-04-26 22:16 21.36195 -86.98912 4911 ft 279 kts 237°
2026-04-26 22:16 21.35148 -87.00651 4601 ft 278 kts 237°
2026-04-26 22:16 21.34111 -87.02372 4298 ft 277 kts 237°
2026-04-26 22:16 21.33055 -87.04122 3985 ft 275 kts 237°
2026-04-26 22:17 21.32023 -87.05833 3680 ft 274 kts 236°
2026-04-26 22:17 21.30999 -87.07532 3385 ft 273 kts 236°
2026-04-26 22:17 21.29957 -87.09252 3102 ft 267 kts 234°
2026-04-26 22:17 21.28675 -87.10538 2965 ft 243 kts 213°
2026-04-26 22:18 21.27326 -87.11511 2948 ft 221 kts 211°
2026-04-26 22:18 21.26115 -87.12375 2939 ft 202 kts 211°
2026-04-26 22:18 21.24967 -87.13191 2938 ft 192 kts 211°
2026-04-26 22:18 21.23849 -87.13981 2943 ft 192 kts 210°
2026-04-26 22:19 21.22602 -87.14321 2936 ft 186 kts 169°
2026-04-26 22:19 21.21513 -87.13629 2956 ft 185 kts 129°
2026-04-26 22:19 21.20764 -87.12517 2959 ft 185 kts 124°
2026-04-26 22:19 21.20026 -87.11378 2958 ft 187 kts 124°
2026-04-26 22:20 21.19292 -87.10229 2961 ft 186 kts 124°
2026-04-26 22:20 21.18567 -87.09084 2955 ft 185 kts 124°
2026-04-26 22:20 21.17854 -87.07951 2951 ft 185 kts 124°
2026-04-26 22:20 21.17135 -87.06805 2949 ft 183 kts 124°
2026-04-26 22:21 21.16421 -87.05664 2951 ft 184 kts 124°
2026-04-26 22:21 21.15710 -87.04528 2949 ft 178 kts 123°
2026-04-26 22:21 21.15057 -87.03483 2968 ft 159 kts 123°
2026-04-26 22:21 21.14462 -87.02531 2950 ft 149 kts 123°
2026-04-26 22:22 21.13883 -87.01603 2892 ft 154 kts 123°
2026-04-26 22:22 21.13313 -87.00645 2678 ft 151 kts 123°
2026-04-26 22:22 21.12754 -86.99725 2496 ft 148 kts 123°
2026-04-26 22:22 21.12186 -86.98805 2308 ft 145 kts 123°
2026-04-26 22:23 21.11626 -86.97906 2126 ft 144 kts 124°
2026-04-26 22:23 21.11114 -86.97089 1924 ft 121 kts 124°
2026-04-26 22:23 21.10666 -86.96375 1774 ft 113 kts 124°
2026-04-26 22:23 21.10227 -86.95677 1643 ft 113 kts 124°
2026-04-26 22:24 21.09793 -86.94987 1510 ft 113 kts 124°
2026-04-26 22:24 21.09347 -86.94277 1366 ft 113 kts 124°
2026-04-26 22:24 21.08907 -86.93579 1223 ft 112 kts 124°
2026-04-26 22:24 21.08469 -86.92883 1078 ft 112 kts 124°
2026-04-26 22:25 21.08033 -86.92189 932 ft 112 kts 124°
2026-04-26 22:25 21.07599 -86.91490 795 ft 112 kts 124°
2026-04-26 22:25 21.07173 -86.90795 665 ft 112 kts 124°
2026-04-26 22:25 21.06730 -86.90108 510 ft 112 kts 126°
2026-04-26 22:26 21.06285 -86.89428 357 ft 111 kts 125°
2026-04-26 22:26 21.05851 -86.88754 221 ft 110 kts 124°
2026-04-26 22:26 21.05425 -86.88058 84 ft 110 kts 125°
2026-04-26 22:26 21.05031 -86.87435 39 ft 86 kts 124°
2026-04-26 22:27 21.04742 -86.86973 39 ft 64 kts 124°
2026-04-26 22:27 21.04524 -86.86627 39 ft 48 kts 123°
2026-04-26 22:27 21.04311 -86.86400 38 ft 38 kts 151°
2026-04-26 22:27 21.04136 -86.86307 40 ft 17 kts 147°
2026-04-26 22:28 21.04057 -86.86228 41 ft 14 kts 161°
2026-04-26 22:28 21.03950 -86.86281 40 ft 21 kts 211°
2026-04-26 22:28 21.03809 -86.86381 42 ft 25 kts 213°
2026-04-26 22:28 21.03658 -86.86488 43 ft 24 kts 213°
2026-04-26 22:29 21.03523 -86.86534 42 ft 19 kts 120°
2026-04-26 22:29 21.03469 -86.86447 43 ft 14 kts 124°
2026-04-26 22:29 21.03396 -86.86383 43 ft 14 kts 204°
2026-04-26 22:29 21.03365 -86.86404 42 ft 0 kts 213°
2026-04-26 22:30 21.03360 -86.86408 42 ft 0 kts 213°